CAPE
0 0 0 0 0 0 0 0 0 0 0 0 0 0 72 77 112 156 155 192 246 124 102 118 28 0 2 0 0 0 0 0 0 0 0 0 0 0 0 0 0 0 0 0
0 0 0 0 0 0 0 0 0 0 0 0 0 0 108 80 81 74 120 180 269 198 146 126 114 52 10 9 0 0 0 0 0 0 0 0 0 0 0 0 0 0 0 0
0 0 0 0 0 0 0 0 0 0 0 0 2 11 87 143 135 106 141 189 208 226 196 141 87 52 42 13 0 0 0 0 0 0 0 0 0 0 0 0 0 0 0 0
0 0 0 0 0 0 0 0 0 0 0 0 1 0 29 126 241 138 177 222 219 206 189 176 108 65 20 11 0 0 0 0 0 0 0 0 0 0 0 0 0 0 0 0
0 0 0 0 0 0 0 0 0 0 0 0 0 0 0 54 43 146 259 222 271 181 142 132 89 49 12 11 0 0 0 0 0 0 0 0 0 0 0 0 0 0 0 0
0 0 0 0 0 0 0 0 0 0 0 0 0 0 0 18 67 90 70 111 238 268 203 100 71 69 35 4 0 0 0 0 0 0 0 0 0 0 0 0 0 0 0 0
0 0 0 0 0 0 0 0 0 0 0 0 0 0 0 4 34 79 113 177 160 179 175 58 83 84 44 15 0 0 0 0 0 0 0 0 0 0 0 0 0 0 0 0
0 0 0 0 0 0 0 0 0 0 0 0 0 0 0 0 10 40 106 139 123 148 102 70 99 80 51 0 0 0 0 0 0 0 0 0 0 0 0 0 3 0 0 0
0 0 0 0 0 0 0 0 0 0 0 0 0 0 0 5 60 81 111 145 136 158 82 63 116 81 46 1 0 0 0 0 0 0 0 0 0 0 0 0 3 10 2 0
0 0 0 0 0 0 0 0 0 0 0 0 0 0 0 0 31 108 151 171 175 146 87 86 113 68 29 11 0 0 0 0 0 0 0 0 0 0 0 0 3 6 3 0
0 0 0 0 0 0 0 0 0 0 0 0 0 0 0 0 6 95 145 198 197 114 82 89 132 110 7 0 0 0 0 0 0 0 0 0 0 2 1 6 7 7 1 16
0 0 0 0 0 0 0 0 0 0 0 0 0 0 0 3 41 126 160 231 239 224 95 100 161 184 63 28 2 0 0 0 0 0 3 9 16 20 19 15 18 4 3 2
0 0 0 0 0 0 0 0 0 0 0 0 0 0 1 0 32 78 182 169 275 319 184 179 174 250 245 111 47 13 5 7 15 25 36 46 55 68 67 53 32 18 2 3
19 0 0 0 0 0 0 0 0 0 0 0 0 0 2 0 33 61 23 113 211 343 287 249 314 307 320 265 170 58 48 39 36 36 49 62 75 89 91 56 39 36 25 9
51 10 0 0 0 0 0 0 19 0 0 0 0 0 0 7 31 55 24 32 106 238 352 338 440 529 478 404 255 125 60 39 32 40 50 65 92 100 62 47 35 49 29 12
109 47 14 0 2 4 0 8 26 35 30 10 0 0 0 13 1 0 0 0 54 186 268 372 431 550 649 629 497 259 85 61 54 53 31 40 105 97 54 53 38 36 8 8
166 110 79 5 5 40 11 0 0 15 15 8 2 0 15 6 0 3 2 1 8 24 39 87 184 233 230 209 205 200 35 54 61 83 89 96 115 76 70 52 46 44 52 26
139 93 102 15 23 21 0 0 0 13 8 10 3 3 3 2 8 0 0 2 0 0 0 0 0 0 0 0 0 0 0 1 22 34 92 130 123 102 54 50 43 37 73 58
168 185 133 75 14 0 0 0 0 2 0 0 0 0 0 1 11 0 0 0 9 0 0 2 2 0 0 0 0 0 0 16 58 70 104 126 109 63 57 48 47 60 73 24
233 235 176 91 76 0 0 0 0 9 0 0 0 0 0 1 1 0 17 16 1 0 0 0 0 0 0 0 0 0 0 0 9 72 81 78 71 65 76 63 44 27 39 32
171 223 142 34 21 1 0 0 0 0 0 0 0 0 0 0 0 4 1 0 0 0 0 0 0 0 0 0 0 0 0 0 0 24 57 77 78 83 74 54 43 22 19 19
55 50 6 33 0 0 0 0 0 0 0 0 0 0 0 0 0 0 0 0 0 0 0 0 0 0 0 0 0 0 0 0 0 0 20 43 49 54 65 65 44 34 33 26
106 3 0 11 0 0 0 1 1 0 0 0 0 0 0 0 0 0 0 0 0 0 0 0 0 0 0 0 0 0 0 0 0 0 3 17 23 42 42 23 20 20 36 3
0 3 25 3 0 0 0 12 0 0 0 0 0 0 0 0 0 0 0 0 0 0 0 0 0 0 0 0 0 0 0 0 2 16 22 34 38 40 20 23 24 11 7 0
59 27 30 6 0 0 14 3 0 0 0 0 0 0 0 0 0 0 0 0 0 0 0 0 0 0 0 0 0 0 0 0 0 2 11 23 28 23 41 27 15 21 15 3
0 4 5 0 0 0 1 1 0 0 0 0 0 0 0 0 0 0 0 0 0 0 0 0 0 0 0 0 0 0 0 0 0 0 0 1 20 70 75 59 27 2 52 35
CIN
-0 -0 -0 -0 -0 -0 -0 -0 -0 -0 -0 -0 -0 -0 -161 -136 -116 -119 -112 -143 -101 -91 -88 -98 -126 -0 -47 -0 -0 -0 -0 -0 -0 -0 -0 -0 -0 -0 -0 -0 -0 -0 -0 -0
-0 -0 -0 -0 -0 -0 -0 -0 -0 -0 -0 -0 -0 -0 -153 -130 -128 -137 -115 -118 -127 -120 -124 -127 -103 -99 -95 -36 -0 -0 -0 -0 -0 -0 -0 -0 -0 -0 -0 -0 -0 -0 -0 -0
-0 -0 -0 -0 -0 -0 -0 -0 -0 -0 -0 -0 -92 -81 -136 -129 -112 -110 -88 -71 -92 -112 -122 -146 -133 -97 -76 -46 -0 -0 -0 -0 -0 -0 -0 -0 -0 -0 -0 -0 -0 -0 -0 -0
-0 -0 -0 -0 -0 -0 -0 -0 -0 -0 -0 -0 -14 -0 -182 -131 -112 -102 -101 -87 -100 -133 -144 -124 -124 -109 -78 -50 -0 -0 -0 -0 -0 -0 -0 -0 -0 -0 -0 -0 -0 -0 -0 -0
-0 -0 -0 -0 -0 -0 -0 -0 -0 -0 -0 -0 -0 -0 -0 -204 -114 -155 -128 -147 -112 -136 -173 -163 -155 -114 -91 -82 -0 -0 -0 -0 -0 -0 -0 -0 -0 -0 -0 -0 -0 -0 -0 -0
-0 -0 -0 -0 -0 -0 -0 -0 -0 -0 -0 -0 -0 -0 -0 -191 -246 -208 -275 -214 -181 -139 -146 -163 -142 -92 -127 -66 -0 -0 -0 -0 -0 -0 -0 -0 -0 -0 -0 -0 -0 -0 -0 -0
-0 -0 -0 -0 -0 -0 -0 -0 -0 -0 -0 -0 -0 -0 -0 -71 -248 -212 -306 -330 -293 -237 -185 -225 -167 -140 -138 -158 -0 -0 -0 -0 -0 -0 -0 -0 -0 -0 -0 -0 -0 -0 -0 -0
-0 -0 -0 -0 -0 -0 -0 -0 -0 -0 -0 -0 -0 -0 -0 -0 -214 -81 -286 -322 -245 -151 -105 -273 -190 -130 -125 -0 -0 -0 -0 -0 -0 -0 -0 -0 -0 -0 -0 -0 -4 -0 -0 -0
-0 -0 -0 -0 -0 -0 -0 -0 -0 -0 -0 -0 -0 -0 -0 -47 -170 -77 -244 -273 -240 -194 -146 -288 -188 -141 -118 -11 -0 -0 -0 -0 -0 -0 -0 -0 -0 -0 -0 -0 -4 -3 -8 -0
-0 -0 -0 -0 -0 -0 -0 -0 -0 -0 -0 -0 -0 -0 -0 -0 -139 -183 -115 -134 -137 -148 -225 -267 -197 -152 -137 -105 -0 -0 -0 -0 -0 -0 -0 -0 -0 -0 -0 -0 -6 -3 -12 -0
-0 -0 -0 -0 -0 -0 -0 -0 -0 -0 -0 -0 -0 -0 -0 -0 -73 -186 -151 -33 -108 -49 -232 -244 -176 -136 -85 -0 -0 -0 -0 -0 -0 -0 -0 -0 -0 -3 -4 -6 -7 -5 -3 -0
-0 -0 -0 -0 -0 -0 -0 -0 -0 -0 -0 -0 -0 -0 -0 -14 -19 -195 -211 -52 -27 -16 -13 -198 -150 -135 -119 -59 -15 -0 -0 -0 -0 -0 -9 -7 -6 -8 -7 -6 -2 -12 -9 -1
-0 -0 -0 -0 -0 -0 -0 -0 -0 -0 -0 -0 -0 -0 -2 -0 -47 -109 -99 -104 -53 -38 -19 -39 -148 -135 -104 -56 -51 -10 -8 -12 -3 -5 -4 -2 -5 -3 -125 -0 -1 -2 -3 -1
-78 -0 -0 -0 -0 -0 -0 -39 -0 -0 -0 -0 -0 -0 -10 -0 -21 -25 -43 -109 -80 -53 -27 -23 -32 -28 -86 -52 -34 -6 -3 -2 -1 -0 -1 -2 -25 -64 -62 -0 -0 -0 -1 -10
-20 -70 -0 -0 -0 -0 -0 -0 -55 -0 -0 -0 -0 -0 -0 -21 -14 -18 -30 -66 -43 -33 -27 -23 -17 -22 -26 -29 -24 -34 -8 -6 -0 -23 -15 -15 -31 -38 -1 -0 -0 -0 -0 -12
-21 -28 -58 -0 -64 -90 -0 -61 -29 -35 -61 -42 -0 -0 -0 -34 -10 -0 -0 -0 -48 -13 -14 -12 -14 -15 -26 -17 -24 -35 -7 -4 -18 -10 -74 -57 -16 -9 -53 -1 -0 -6 -7 -17
-17 -21 -6 -81 -17 -70 -54 -0 -7 -27 -15 -33 -2 -0 -30 -30 -9 -1 -10 -54 -51 -55 -45 -57 -27 -14 -21 -26 -24 -24 -33 -24 -21 -18 -5 -28 -35 -60 -5 -0 -0 -0 -2 -7
-7 -23 -15 -14 -1 -5 -0 -0 -0 -35 -25 -11 -4 -4 -7 -9 -11 -0 -0 -33 -0 -0 -0 -0 -0 -0 -0 -0 -0 -0 -0 -56 -28 -40 -12 -20 -30 -49 -6 -1 -0 -1 -0 -0
-30 -7 -4 -6 -20 -0 -0 -0 -6 -72 -0 -0 -0 -0 -0 -4 -28 -0 -64 -2 -23 -0 -0 -7 -5 -0 -0 -0 -0 -0 -0 -48 -9 -1 -7 -20 -42 -7 -8 -4 -1 -0 -0 -9
-30 -0 -0 -8 -1 -0 -0 -0 -0 -56 -0 -0 -0 -0 -0 -4 -2 -0 -40 -17 -18 -0 -0 -0 -0 -0 -0 -0 -0 -0 -0 -0 -17 -9 -23 -6 -11 -6 -4 -5 -11 -17 -14 -12
-0 -0 -0 -0 -1 -3 -0 -0 -0 -0 -0 -0 -0 -0 -0 -0 -0 -21 -8 -6 -0 -0 -0 -0 -0 -0 -0 -0 -0 -0 -0 -0 -0 -42 -37 -45 -9 -14 -29 -40 -47 -5 -4 -5
-48 -9 -32 -0 -0 -0 -0 -0 -0 -0 -0 -0 -0 -0 -0 -0 -0 -0 -0 -0 -0 -0 -0 -0 -0 -0 -0 -0 -0 -0 -0 -0 -0 -0 -31 -30 -41 -40 -42 -51 -51 -2 -1 -1
-3 -40 -0 -67 -0 -0 -0 -56 -49 -0 -0 -0 -0 -0 -0 -0 -0 -0 -0 -0 -0 -0 -0 -0 -0 -0 -0 -0 -0 -0 -0 -0 -0 -0 -15 -33 -36 -39 -49 -40 -4 -5 -1 -78
-9 -13 -38 -37 -0 -0 -0 -100 -0 -0 -0 -0 -0 -0 -0 -0 -0 -0 -0 -0 -0 -0 -0 -0 -0 -0 -0 -0 -0 -0 -0 -0 -18 -18 -31 -32 -30 -44 -35 -5 -3 -1 -4 -0
-11 -45 -86 -70 -0 -0 -42 -96 -0 -0 -0 -0 -0 -0 -0 -0 -0 -0 -0 -0 -0 -0 -0 -0 -0 -0 -0 -0 -0 -0 -0 -0 -0 -18 -28 -24 -7 -2 -2 -5 -0 -1 -6 -2
-0 -73 -29 -0 -0 -0 -85 -32 -0 -0 -0 -0 -0 -0 -0 -0 -0 -0 -0 -0 -0 -0 -0 -0 -0 -0 -0 -0 -0 -0 -0 -0 -0 -0 -0 -0 -5 -3 -3 -4 -2 -1 -0 -1
Wind_Speed
nan nan nan nan nan nan nan nan nan nan nan nan nan nan nan nan 37 32 35 35 28 28 21 25 nan nan nan nan nan nan nan nan nan nan nan nan nan nan nan nan nan nan nan nan
nan nan nan nan nan nan nan nan nan nan nan nan nan nan 42 nan nan nan 35 34 31 22 26 28 26 nan nan nan nan nan nan nan nan nan nan nan nan nan nan nan nan nan nan nan
nan nan nan nan nan nan nan nan nan nan nan nan nan nan nan 36 38 34 29 30 29 25 27 29 nan nan nan nan nan nan nan nan nan nan nan nan nan nan nan nan nan nan nan nan
nan nan nan nan nan nan nan nan nan nan nan nan nan nan nan 39 36 33 31 28 29 25 26 30 29 nan nan nan nan nan nan nan nan nan nan nan nan nan nan nan nan nan nan nan
nan nan nan nan nan nan nan nan nan nan nan nan nan nan nan nan nan 27 28 28 28 27 30 30 nan nan nan nan nan nan nan nan nan nan nan nan nan nan nan nan nan nan nan nan
nan nan nan nan nan nan nan nan nan nan nan nan nan nan nan nan nan nan nan 30 26 26 30 27 nan nan nan nan nan nan nan nan nan nan nan nan nan nan nan nan nan nan nan nan
nan nan nan nan nan nan nan nan nan nan nan nan nan nan nan nan nan nan 31 37 33 29 28 nan nan nan nan nan nan nan nan nan nan nan nan nan nan nan nan nan nan nan nan nan
nan nan nan nan nan nan nan nan nan nan nan nan nan nan nan nan nan nan 30 29 27 22 24 nan nan nan nan nan nan nan nan nan nan nan nan nan nan nan nan nan nan nan nan nan
nan nan nan nan nan nan nan nan nan nan nan nan nan nan nan nan nan nan 27 24 20 27 nan nan 23 nan nan nan nan nan nan nan nan nan nan nan nan nan nan nan nan nan nan nan
nan nan nan nan nan nan nan nan nan nan nan nan nan nan nan nan nan 21 19 21 22 20 nan nan 21 nan nan nan nan nan nan nan nan nan nan nan nan nan nan nan nan nan nan nan
nan nan nan nan nan nan nan nan nan nan nan nan nan nan nan nan nan nan 16 18 22 17 nan nan 22 27 nan nan nan nan nan nan nan nan nan nan nan nan nan nan nan nan nan nan
nan nan nan nan nan nan nan nan nan nan nan nan nan nan nan nan nan 16 19 8 14 18 nan 19 22 32 nan nan nan nan nan nan nan nan nan nan nan nan nan nan nan nan nan nan
nan nan nan nan nan nan nan nan nan nan nan nan nan nan nan nan nan nan 20 23 25 21 22 19 26 26 26 28 nan nan nan nan nan nan nan nan nan nan nan nan nan nan nan nan
nan nan nan nan nan nan nan nan nan nan nan nan nan nan nan nan nan nan nan 24 24 22 26 28 23 17 25 28 27 nan nan nan nan nan nan nan nan nan nan nan nan nan nan nan
nan nan nan nan nan nan nan nan nan nan nan nan nan nan nan nan nan nan nan nan 21 18 22 22 13 20 25 24 25 24 nan nan nan nan nan nan nan 40 nan nan nan nan nan nan
60 nan nan nan nan nan nan nan nan nan nan nan nan nan nan nan nan nan nan nan nan 26 25 23 22 24 21 21 21 22 nan nan nan nan nan nan 40 nan nan nan nan nan nan nan
64 57 nan nan nan nan nan nan nan nan nan nan nan nan nan nan nan nan nan nan nan nan nan nan 23 23 21 17 22 22 nan nan nan nan nan nan 44 nan nan nan nan nan nan nan
61 nan 53 nan nan nan nan nan nan nan nan nan nan nan nan nan nan nan nan nan nan nan nan nan nan nan nan nan nan nan nan nan nan nan nan 45 48 48 nan nan nan nan nan nan
59 50 51 nan nan nan nan nan nan nan nan nan nan nan nan nan nan nan nan nan nan nan nan nan nan nan nan nan nan nan nan nan nan nan 41 45 48 nan nan nan nan nan nan nan
58 55 47 nan nan nan nan nan nan nan nan nan nan nan nan nan nan nan nan nan nan nan nan nan nan nan nan nan nan nan nan nan nan nan nan nan nan nan nan nan nan nan nan nan
55 58 44 nan nan nan nan nan nan nan nan nan nan nan nan nan nan nan nan nan nan nan nan nan nan nan nan nan nan nan nan nan nan nan nan nan nan nan nan nan nan nan nan nan
nan nan nan nan nan nan nan nan nan nan nan nan nan nan nan nan nan nan nan nan nan nan nan nan nan nan nan nan nan nan nan nan nan nan nan nan nan nan nan nan nan nan nan nan
48 nan nan nan nan nan nan nan nan nan nan nan nan nan nan nan nan nan nan nan nan nan nan nan nan nan nan nan nan nan nan nan nan nan nan nan nan nan nan nan nan nan nan nan
nan nan nan nan nan nan nan nan nan nan nan nan nan nan nan nan nan nan nan nan nan nan nan nan nan nan nan nan nan nan nan nan nan nan nan nan nan nan nan nan nan nan nan nan
nan nan nan nan nan nan nan nan nan nan nan nan nan nan nan nan nan nan nan nan nan nan nan nan nan nan nan nan nan nan nan nan nan nan nan nan nan nan nan nan nan nan nan nan
nan nan nan nan nan nan nan nan nan nan nan nan nan nan nan nan nan nan nan nan nan nan nan nan nan nan nan nan nan nan nan nan nan nan nan nan nan nan nan nan nan nan nan nan
Wind_Direction
nan nan nan nan nan nan nan nan nan nan nan nan nan nan nan nan 317 325 329 331 325 327 319 308 nan nan nan nan nan nan nan nan nan nan nan nan nan nan nan nan nan nan nan nan
nan nan nan nan nan nan nan nan nan nan nan nan nan nan 292 nan nan nan 326 327 324 315 311 309 306 nan nan nan nan nan nan nan nan nan nan nan nan nan nan nan nan nan nan nan
nan nan nan nan nan nan nan nan nan nan nan nan nan nan nan 302 301 308 314 325 324 314 319 310 nan nan nan nan nan nan nan nan nan nan nan nan nan nan nan nan nan nan nan nan
nan nan nan nan nan nan nan nan nan nan nan nan nan nan nan 306 308 315 317 321 316 311 314 310 305 nan nan nan nan nan nan nan nan nan nan nan nan nan nan nan nan nan nan nan
nan nan nan nan nan nan nan nan nan nan nan nan nan nan nan nan nan 324 317 321 312 308 308 310 nan nan nan nan nan nan nan nan nan nan nan nan nan nan nan nan nan nan nan nan
nan nan nan nan nan nan nan nan nan nan nan nan nan nan nan nan nan nan nan 322 314 300 300 301 nan nan nan nan nan nan nan nan nan nan nan nan nan nan nan nan nan nan nan nan
nan nan nan nan nan nan nan nan nan nan nan nan nan nan nan nan nan nan 315 319 302 284 289 nan nan nan nan nan nan nan nan nan nan nan nan nan nan nan nan nan nan nan nan nan
nan nan nan nan nan nan nan nan nan nan nan nan nan nan nan nan nan nan 291 299 282 274 278 nan nan nan nan nan nan nan nan nan nan nan nan nan nan nan nan nan nan nan nan nan
nan nan nan nan nan nan nan nan nan nan nan nan nan nan nan nan nan nan 274 284 298 285 nan nan 298 nan nan nan nan nan nan nan nan nan nan nan nan nan nan nan nan nan nan nan
nan nan nan nan nan nan nan nan nan nan nan nan nan nan nan nan nan 270 270 275 276 269 nan nan 301 nan nan nan nan nan nan nan nan nan nan nan nan nan nan nan nan nan nan nan
nan nan nan nan nan nan nan nan nan nan nan nan nan nan nan nan nan nan 286 282 266 303 nan nan 303 317 nan nan nan nan nan nan nan nan nan nan nan nan nan nan nan nan nan nan
nan nan nan nan nan nan nan nan nan nan nan nan nan nan nan nan nan 251 271 292 270 313 nan 293 310 314 nan nan nan nan nan nan nan nan nan nan nan nan nan nan nan nan nan nan
nan nan nan nan nan nan nan nan nan nan nan nan nan nan nan nan nan nan 254 279 289 303 284 298 299 310 309 309 nan nan nan nan nan nan nan nan nan nan nan nan nan nan nan nan
nan nan nan nan nan nan nan nan nan nan nan nan nan nan nan nan nan nan nan 277 271 297 295 301 295 324 319 309 307 nan nan nan nan nan nan nan nan nan nan nan nan nan nan nan
nan nan nan nan nan nan nan nan nan nan nan nan nan nan nan nan nan nan nan nan 283 277 281 298 287 298 320 298 292 295 nan nan nan nan nan nan nan 307 nan nan nan nan nan nan
252 nan nan nan nan nan nan nan nan nan nan nan nan nan nan nan nan nan nan nan nan 271 291 298 287 295 309 293 287 294 nan nan nan nan nan nan 307 nan nan nan nan nan nan nan
251 254 nan nan nan nan nan nan nan nan nan nan nan nan nan nan nan nan nan nan nan nan nan nan 297 304 305 286 288 303 nan nan nan nan nan nan 313 nan nan nan nan nan nan nan
248 nan 255 nan nan nan nan nan nan nan nan nan nan nan nan nan nan nan nan nan nan nan nan nan nan nan nan nan nan nan nan nan nan nan nan 308 310 312 nan nan nan nan nan nan
246 249 248 nan nan nan nan nan nan nan nan nan nan nan nan nan nan nan nan nan nan nan nan nan nan nan nan nan nan nan nan nan nan nan 308 307 309 nan nan nan nan nan nan nan
247 242 249 nan nan nan nan nan nan nan nan nan nan nan nan nan nan nan nan nan nan nan nan nan nan nan nan nan nan nan nan nan nan nan nan nan nan nan nan nan nan nan nan nan
242 243 252 nan nan nan nan nan nan nan nan nan nan nan nan nan nan nan nan nan nan nan nan nan nan nan nan nan nan nan nan nan nan nan nan nan nan nan nan nan nan nan nan nan
nan nan nan nan nan nan nan nan nan nan nan nan nan nan nan nan nan nan nan nan nan nan nan nan nan nan nan nan nan nan nan nan nan nan nan nan nan nan nan nan nan nan nan nan
250 nan nan nan nan nan nan nan nan nan nan nan nan nan nan nan nan nan nan nan nan nan nan nan nan nan nan nan nan nan nan nan nan nan nan nan nan nan nan nan nan nan nan nan
nan nan nan nan nan nan nan nan nan nan nan nan nan nan nan nan nan nan nan nan nan nan nan nan nan nan nan nan nan nan nan nan nan nan nan nan nan nan nan nan nan nan nan nan
nan nan nan nan nan nan nan nan nan nan nan nan nan nan nan nan nan nan nan nan nan nan nan nan nan nan nan nan nan nan nan nan nan nan nan nan nan nan nan nan nan nan nan nan
nan nan nan nan nan nan nan nan nan nan nan nan nan nan nan nan nan nan nan nan nan nan nan nan nan nan nan nan nan nan nan nan nan nan nan nan nan nan nan nan nan nan nan nan